TimeEST,TemperatureF,Dew PointF,Humidity,Sea Level PressureIn,VisibilityMPH,Wind Direction,Wind SpeedMPH,Gust SpeedMPH,PrecipitationIn,Events,Conditions,WindDirDegrees,DateUTC
12:15 AM,30.2,30.2,100,29.93,6.0,East,5.8,-,N/A,,Overcast,90,2013-02-06 05:15:00
12:35 AM,30.2,30.2,100,29.92,5.0,ENE,5.8,-,N/A,,Overcast,70,2013-02-06 05:35:00
12:55 AM,30.2,30.2,100,29.92,3.0,East,4.6,-,N/A,,Overcast,90,2013-02-06 05:55:00
1:15 AM,30.2,30.2,100,29.92,4.0,East,6.9,-,N/A,,Overcast,90,2013-02-06 06:15:00
1:35 AM,32.0,30.2,93,29.92,3.0,East,10.4,-,N/A,,Overcast,90,2013-02-06 06:35:00
2:15 AM,32.0,30.2,93,29.92,4.0,NE,4.6,-,N/A,,Overcast,50,2013-02-06 07:15:00
2:35 AM,32.0,30.2,93,29.92,2.5,East,4.6,-,N/A,,Overcast,100,2013-02-06 07:35:00
2:55 AM,32.0,30.2,93,29.92,7.0,East,5.8,-,N/A,,Overcast,80,2013-02-06 07:55:00
3:15 AM,33.8,32.0,93,29.92,3.0,North,4.6,-,N/A,,Overcast,360,2013-02-06 08:15:00
3:35 AM,32.0,32.0,100,29.92,10.0,NE,4.6,-,N/A,,Overcast,50,2013-02-06 08:35:00
3:55 AM,33.8,32.0,93,29.92,10.0,NE,3.5,-,N/A,,Overcast,50,2013-02-06 08:55:00
4:15 AM,32.0,30.2,93,29.91,10.0,ENE,3.5,-,N/A,,Overcast,60,2013-02-06 09:15:00
4:35 AM,30.2,30.2,100,29.92,2.0,Calm,Calm,-,N/A,,Overcast,0,2013-02-06 09:35:00
4:55 AM,30.2,28.4,93,29.93,9.0,Calm,Calm,-,N/A,,Overcast,0,2013-02-06 09:55:00
5:15 AM,30.2,28.4,93,29.93,10.0,WNW,3.5,-,N/A,,Mostly Cloudy,290,2013-02-06 10:15:00
5:35 AM,30.2,30.2,100,29.94,10.0,West,3.5,-,0.01,,Overcast,270,2013-02-06 10:35:00
5:55 AM,30.2,28.4,93,29.94,10.0,Calm,Calm,-,0.01,,Overcast,0,2013-02-06 10:55:00
6:15 AM,30.2,30.2,100,29.95,10.0,West,3.5,-,N/A,,Overcast,270,2013-02-06 11:15:00
6:35 AM,32.0,30.2,93,29.95,10.0,West,3.5,-,0.01,,Overcast,280,2013-02-06 11:35:00
6:56 AM,33.8,30.2,87,29.96,10.0,West,6.9,-,N/A,,Overcast,280,2013-02-06 11:56:00
7:15 AM,33.8,30.2,87,29.97,10.0,West,6.9,-,N/A,,Overcast,280,2013-02-06 12:15:00
7:35 AM,33.8,30.2,87,29.98,10.0,WNW,9.2,-,N/A,,Overcast,290,2013-02-06 12:35:00
7:55 AM,33.8,28.4,81,29.98,10.0,WNW,8.1,-,N/A,,Overcast,290,2013-02-06 12:55:00
8:35 AM,33.8,30.2,87,29.99,10.0,West,11.5,-,N/A,,Overcast,280,2013-02-06 13:35:00
8:55 AM,33.8,28.4,81,29.99,10.0,West,9.2,-,0.01,,Overcast,280,2013-02-06 13:55:00
9:15 AM,33.8,28.4,81,29.99,10.0,West,10.4,-,N/A,,Overcast,280,2013-02-06 14:15:00
9:35 AM,33.8,28.4,81,30.00,10.0,WNW,13.8,-,N/A,,Overcast,290,2013-02-06 14:35:00
9:55 AM,33.8,30.2,87,30.01,10.0,West,10.4,-,0.01,,Overcast,280,2013-02-06 14:55:00
10:15 AM,33.8,28.4,81,30.01,10.0,WNW,12.7,-,N/A,,Overcast,290,2013-02-06 15:15:00
10:35 AM,33.8,26.6,75,30.02,10.0,WNW,15.0,-,N/A,,Overcast,290,2013-02-06 15:35:00
10:55 AM,33.8,28.4,81,30.00,10.0,West,10.4,-,N/A,,Overcast,280,2013-02-06 15:55:00
11:35 AM,35.6,28.4,75,30.00,10.0,West,9.2,-,N/A,,Partly Cloudy,280,2013-02-06 16:35:00
11:55 AM,35.6,28.4,75,30.00,10.0,West,10.4,-,N/A,,Clear,270,2013-02-06 16:55:00
12:15 PM,35.6,28.4,75,30.00,10.0,West,11.5,-,N/A,,Clear,270,2013-02-06 17:15:00
12:35 PM,37.4,28.4,70,30.00,10.0,WNW,10.4,-,N/A,,Clear,290,2013-02-06 17:35:00
12:55 PM,37.4,26.6,65,29.99,10.0,West,9.2,-,N/A,,Clear,270,2013-02-06 17:55:00
1:15 PM,37.4,28.4,70,29.99,10.0,West,10.4,-,N/A,,Clear,260,2013-02-06 18:15:00
1:35 PM,37.4,26.6,65,29.99,10.0,West,10.4,-,N/A,,Clear,280,2013-02-06 18:35:00
1:55 PM,37.4,24.8,60,30.00,10.0,West,9.2,-,N/A,,Clear,270,2013-02-06 18:55:00
2:15 PM,37.4,24.8,60,30.01,10.0,WNW,10.4,-,N/A,,Scattered Clouds,290,2013-02-06 19:15:00
2:35 PM,37.4,24.8,60,30.01,10.0,WNW,12.7,-,N/A,,Overcast,300,2013-02-06 19:35:00
2:55 PM,37.4,21.2,52,30.02,10.0,WNW,13.8,-,N/A,,Overcast,300,2013-02-06 19:55:00
3:15 PM,37.4,24.8,60,30.03,10.0,WNW,15.0,-,N/A,,Overcast,300,2013-02-06 20:15:00
3:35 PM,37.4,24.8,60,30.03,10.0,WNW,15.0,21.9,N/A,,Mostly Cloudy,300,2013-02-06 20:35:00
4:15 PM,37.4,21.2,52,30.04,10.0,NW,15.0,21.9,N/A,,Partly Cloudy,310,2013-02-06 21:15:00
4:35 PM,35.6,21.2,56,30.05,10.0,WNW,16.1,21.9,N/A,,Partly Cloudy,300,2013-02-06 21:35:00
4:55 PM,35.6,21.2,56,30.06,10.0,WNW,17.3,23.0,N/A,,Scattered Clouds,290,2013-02-06 21:55:00
5:15 PM,35.6,23.0,60,30.07,10.0,WNW,16.1,23.0,N/A,,Mostly Cloudy,300,2013-02-06 22:15:00
5:35 PM,35.6,21.2,56,30.08,10.0,WNW,16.1,25.3,N/A,,Mostly Cloudy,300,2013-02-06 22:35:00
5:55 PM,35.6,19.4,52,30.10,10.0,WNW,17.3,26.5,N/A,,Partly Cloudy,300,2013-02-06 22:55:00
6:15 PM,35.6,21.2,56,30.11,10.0,WNW,17.3,25.3,N/A,,Clear,300,2013-02-06 23:15:00
6:35 PM,35.6,19.4,52,30.12,10.0,WNW,17.3,25.3,N/A,,Clear,290,2013-02-06 23:35:00
6:55 PM,35.6,19.4,52,30.14,10.0,West,15.0,25.3,N/A,,Clear,280,2013-02-06 23:55:00
7:15 PM,35.6,19.4,52,30.14,10.0,WNW,18.4,24.2,N/A,,Clear,290,2013-02-07 00:15:00
7:35 PM,35.6,19.4,52,30.15,10.0,WNW,16.1,24.2,N/A,,Clear,290,2013-02-07 00:35:00
7:55 PM,35.6,19.4,52,30.16,10.0,WNW,18.4,25.3,N/A,,Clear,290,2013-02-07 00:55:00
8:15 PM,35.6,17.6,48,30.17,10.0,WNW,21.9,27.6,N/A,,Clear,290,2013-02-07 01:15:00
8:35 PM,33.8,17.6,52,30.19,10.0,WNW,15.0,25.3,N/A,,Clear,290,2013-02-07 01:35:00
8:55 PM,33.8,15.8,48,30.19,10.0,WNW,20.7,24.2,N/A,,Clear,300,2013-02-07 01:55:00
9:15 PM,33.8,17.6,52,30.20,10.0,WNW,18.4,26.5,N/A,,Clear,290,2013-02-07 02:15:00
9:35 PM,33.8,17.6,52,30.21,10.0,WNW,18.4,25.3,N/A,,Clear,300,2013-02-07 02:35:00
9:55 PM,32.0,15.8,51,30.22,10.0,WNW,23.0,26.5,N/A,,Clear,300,2013-02-07 02:55:00
10:15 PM,32.0,15.8,51,30.24,10.0,WNW,20.7,26.5,N/A,,Clear,300,2013-02-07 03:15:00
10:35 PM,32.0,15.8,51,30.24,10.0,WNW,17.3,28.8,N/A,,Clear,300,2013-02-07 03:35:00
10:55 PM,32.0,15.8,51,30.26,10.0,WNW,20.7,25.3,N/A,,Clear,300,2013-02-07 03:55:00
11:15 PM,32.0,14.0,48,30.26,10.0,NW,21.9,27.6,N/A,,Clear,310,2013-02-07 04:15:00
11:35 PM,30.2,14.0,51,30.27,10.0,NW,18.4,24.2,N/A,,Clear,310,2013-02-07 04:35:00
11:55 PM,30.2,12.2,47,30.26,10.0,NW,15.0,23.0,N/A,,Clear,310,2013-02-07 04:55:00